Gunnison, CO

12:15 PM MST on November 21, 2019 (GMT -0700)
Gunnison County

Weather History for KGUC - July, 2019

Change the Weather History Date:

Friday, July 26, 2019

  Actual Average Record
Temperature  
Mean Temperature 64 °F -  
Max Temperature 75 °F 76 °F 87 °F (2003)
Min Temperature 53 °F 46 °F 42 °F (1996)
Degree Days  
Heating Degree Days 1    
Growing Degree Days 14 (Base 50)    
Moisture  
Dew Point 52 °F    
Average Humidity 64    
Maximum Humidity 93    
Minimum Humidity 41    
Precipitation  
Precipitation 0.07 in - - ()
Sea Level Pressure  
Sea Level Pressure 30.25 in    
Wind  
Wind Speed 6 mph (WNW)    
Max Wind Speed 18 mph    
Max Gust Speed 23 mph    
Visibility 10 miles    
Events Rain , Thunderstorm    
Averages and records for this station are not official NWS values.
T = Trace of Precipitation, MM = Missing Value Source: NWS Daily Summary

Daily Weather History Graph

Daily Weather History Graph

Search for Another Location

Airport or City:

Astronomy

Jul. 26, 2019 Rise Set
Actual Time 6:04 AM MDT 8:23 PM MDT
Civil Twilight 5:34 AM MDT 8:53 PM MDT
Nautical Twilight 4:57 AM MDT 9:30 PM MDT
Astronomical Twilight 4:16 AM MDT 10:11 PM MDT
Moon 1:17 AM MDT (7/26) 3:13 PM MDT (7/26)
Length of Visible Light 15h 19m
Length of Day
14h 19m
Waning Crescent, 33% of the Moon is Illuminated
Jul 26
Waning Crescent
Jul 31
New
Aug 7
First Quarter
Aug 15
Full
Aug 23
Last Quarter

Hourly Weather History & Observations

Time (MDT) Temp. Dew Point Humidity Pressure Visibility Wind Dir Wind Speed Gust Speed Precip Events Conditions
12:56 AM 60.1 °F 52.0 °F 75% 30.16 in 10.0 mi South 8.1 mph - 0.00 in Rain Light Rain
1:56 AM 59.0 °F 53.1 °F 81% 30.16 in 10.0 mi SE 5.8 mph - 0.00 in   Overcast
2:56 AM 57.0 °F 53.1 °F 87% 30.18 in 10.0 mi Calm Calm - N/A   Clear
3:56 AM 55.0 °F 53.1 °F 93% 30.17 in 10.0 mi NNW 6.9 mph - N/A   Partly Cloudy
4:56 AM 55.0 °F 52.0 °F 89% 30.17 in 10.0 mi NNE 6.9 mph - N/A   Mostly Cloudy
5:56 AM 53.1 °F 51.1 °F 93% 30.19 in 10.0 mi Calm Calm - N/A   Scattered Clouds
6:56 AM 53.1 °F 51.1 °F 93% 30.22 in 10.0 mi Calm Calm - N/A   Mostly Cloudy
7:56 AM 57.0 °F 52.0 °F 83% 30.24 in 10.0 mi East 3.5 mph - N/A   Scattered Clouds
8:56 AM 61.0 °F 53.1 °F 75% 30.23 in 10.0 mi Calm Calm - N/A   Overcast
9:56 AM 64.0 °F 53.1 °F 67% 30.22 in 10.0 mi Variable 3.5 mph - N/A   Clear
10:56 AM 68.0 °F 54.0 °F 61% 30.20 in 10.0 mi Calm Calm - N/A   Clear
11:56 AM 73.0 °F 53.1 °F 49% 30.16 in 10.0 mi SW 9.2 mph - N/A   Mostly Cloudy
12:22 PM 75.2 °F 53.6 °F 47% 30.43 in 10.0 mi WSW 11.5 mph - N/A Thunderstorm Mostly Cloudy
12:42 PM 73.4 °F 53.6 °F 50% 30.43 in 10.0 mi WSW 8.1 mph - N/A Thunderstorm Overcast
12:46 PM 73.4 °F 53.6 °F 50% 30.42 in 10.0 mi WSW 11.5 mph - N/A Thunderstorm Overcast
12:56 PM 73.0 °F 53.1 °F 49% 30.15 in 10.0 mi WSW 6.9 mph - N/A Thunderstorm Mostly Cloudy
1:00 PM 73.4 °F 53.6 °F 50% 30.42 in 10.0 mi WNW 12.7 mph - N/A Thunderstorm Mostly Cloudy
1:56 PM 73.0 °F 50.0 °F 44% 30.15 in 10.0 mi NNE 11.5 mph - N/A   Clear
2:56 PM 73.0 °F 52.0 °F 48% 30.16 in 10.0 mi NNE 12.7 mph - N/A   Scattered Clouds
3:56 PM 71.1 °F 50.0 °F 47% 30.16 in 10.0 mi NNE 18.4 mph 23.0 mph N/A   Overcast
4:56 PM 73.9 °F 48.9 °F 41% 30.13 in 10.0 mi North 16.1 mph - N/A   Clear
5:56 PM 71.1 °F 51.1 °F 49% 30.16 in 10.0 mi Variable 3.5 mph - 0.00 in Rain Light Rain
6:18 PM 71.6 °F 50.0 °F 46% 30.38 in 10.0 mi North 3.5 mph - 0.00 in Thunderstorm Mostly Cloudy
6:23 PM 71.6 °F 50.0 °F 46% 30.38 in 10.0 mi Variable 6.9 mph - 0.00 in Thunderstorm Mostly Cloudy
6:27 PM 71.6 °F 50.0 °F 46% 30.38 in 10.0 mi Variable 5.8 mph - 0.00 in Thunderstorm Mostly Cloudy
6:56 PM 73.0 °F 52.0 °F 48% 30.14 in 10.0 mi Variable 3.5 mph - 0.00 in   Overcast
7:49 PM 69.8 °F 50.0 °F 49% 30.40 in 10.0 mi WNW 3.5 mph - N/A Thunderstorm Overcast
7:56 PM 69.1 °F 53.1 °F 57% 30.17 in 10.0 mi WSW 3.5 mph - N/A Thunderstorm Overcast
8:09 PM 64.4 °F 53.6 °F 68% 30.42 in 10.0 mi WSW 12.7 mph - 0.00 in Rain Light Rain
8:56 PM 62.1 °F 54.0 °F 75% 30.20 in 10.0 mi SW 6.9 mph - 0.00 in   Overcast
9:56 PM 59.0 °F 55.0 °F 87% 30.24 in 10.0 mi SW 9.2 mph - 0.02 in Rain Light Rain
10:56 PM 59.0 °F 55.9 °F 90% 30.25 in 10.0 mi Calm Calm - 0.04 in Rain Light Rain
11:56 PM 57.9 °F 55.9 °F 93% 30.24 in 10.0 mi Calm Calm - 0.01 in   Partly Cloudy